Flag for Mexico Weather past 2 weeks in Cancún, Quintana Roo, Mexico

Now
61 °F

Passing clouds.


Feels Like: 61 °F
Forecast: 71 / 80 °F
Wind: No wind

Location: Cozumel Civ / Mil

Current Time: Dec 17, 2014 at 9:01:45 PM

Latest Report: Dec 17, 2014 at 7:49 PM


Visibility: 7 mi

Pressure: 30.11 "Hg

Humidity: 88%

Dew point: 57 °F

Location of CancúnLocation

Historic Weather in Cancún — Graph

°F

Cancún temperature yesterday

Maximum temperature yesterday: 77 °F (at 11:41 AM)
Minimum temperature yesterday: 55 °F (at 5:54 AM)
Average temperature yesterday: 67 °F

Past Weeks' High & Low Weather Summary

 TemperatureHumidityPressure
High81 °F (Dec 10, 2:48 PM)100% (Dec 2, 7:43 PM)30.23 "Hg (Dec 2, 7:43 PM)
Low52 °F (Dec 15, 4:53 AM)51% (Dec 10, 2:48 PM)29.89 "Hg (Dec 10, 8:49 AM)
Average70 °F83%30.07 "Hg
* Reported Dec 2 7:43 PM — Dec 17 7:49 PM, Cancún, Weather by CustomWeather, © 2014

Note: Actual official high and low records may vary slightly from our data, if they occured in-between our weather recording intervals... More about our weather records

Advertising

Cancún weather history for previous 24 hours

 ConditionsComfort  
Time TempWeatherWind HumidityBarometerVisibility
7:49 PM
Dec 17
61 °FPassing clouds.No wind88%30.11 "Hg7 mi
6:49 PM64 °FPassing clouds.3 mph83%30.10 "Hg7 mi
5:44 PM66 °FPassing clouds.No wind78%30.05 "Hg8 mi
4:47 PM70 °FScattered clouds.7 mph69%30.07 "Hg8 mi
3:41 PM73 °FScattered clouds.9 mph61%30.07 "Hg8 mi
2:46 PM73 °FScattered clouds.12 mph65%30.09 "Hg8 mi
1:51 PM73 °FScattered clouds.9 mph65%30.09 "Hg8 mi
12:44 PM75 °FScattered clouds.12 mph65%30.11 "Hg8 mi
11:51 AM75 °FScattered clouds.9 mph61%30.12 "Hg8 mi
10:50 AM75 °FScattered clouds.10 mph61%30.18 "Hg8 mi
9:42 AM75 °FPassing clouds.12 mph65%30.19 "Hg8 mi
9:00 AM73 °FScattered clouds.12 mph65%30.22 "Hg8 mi
7:45 AM72 °FPassing clouds.5 mph73%30.17 "Hg8 mi
6:44 AM66 °FPassing clouds.6 mph83%30.15 "Hg8 mi
5:44 AM68 °FPassing clouds.6 mph83%30.12 "Hg7 mi
4:40 AM61 °FPassing clouds.No wind94%30.13 "Hg7 mi
4:08 AM59 °FPassing clouds.No wind100%30.12 "Hg7 mi
2:41 AM63 °FPassing clouds.No wind94%30.14 "Hg7 mi
1:42 AM59 °FClear.No wind100%30.13 "Hg7 mi
1:04 AM59 °FClear.No wind100%30.14 "Hg7 mi
11:49 PM
Dec 16
63 °FClear.No wind94%30.14 "Hg7 mi
10:41 PM68 °FPassing clouds.No wind78%30.18 "Hg7 mi
9:44 PM68 °FPassing clouds.6 mph78%30.18 "Hg7 mi
Weather by CustomWeather, © 2014

See weather overviewHow to use our weather pages